User: anonymous   Login
Location: Franzen
(48.6167°N, 15.3833°E)
Time: 11:58:59
(UTC+00:00)
Language:

Cosmos 468 Rocket - Orbit

View from above orbital plane
View from above orbital plane
View from above satellite
View from above satellite

Ground track
Ground track

The orbit data is extracted from the following two-line orbital elements,

1 05707U 71114B   21170.61725837 -.00000022  00000-0  15470-5 0  9990
2 05707  74.0279 265.9519 0025398 333.1074  26.8762 14.38948590593059
Epoch (UTC): 19 June 2021 14:48:51
Eccentricity: 0.0025398
inclination: 74.0279°
perigee height: 744 km
apogee height: 780 km
right ascension of ascending node: 265.9519°
argument of perigee: 333.1074°
revolutions per day: 14.38948590
mean anomaly at epoch: 26.8762°
orbit number at epoch: 59305

The dashed part of the orbit path shows where the satellite is in the earth's shadow,  

DLR